Temp
-8 -8 -8 -8 -8 -9 -8 -8 -8 -8 -7 -7 -7 -8 -8 -9 -9 -10 -10 -10 -10 -10 -10 -10 -10 -10 -10 -10 -10 -9 -9 -9 -9 -8 -8 -8 -9 -9 -9 -9 -9 -9 -9
-7 -8 -8 -8 -8 -9 -9 -8 -8 -8 -8 -7 -7 -7 -8 -8 -9 -9 -10 -10 -10 -10 -10 -10 -10 -10 -10 -9 -9 -9 -9 -9 -8 -9 -9 -9 -9 -9 -9 -9 -9 -9 -9
-7 -7 -8 -8 -8 -9 -9 -9 -8 -8 -8 -8 -8 -7 -7 -8 -8 -9 -9 -10 -10 -10 -10 -10 -10 -9 -9 -9 -9 -9 -9 -9 -9 -9 -9 -9 -9 -9 -9 -10 -9 -10 -10
-7 -7 -8 -8 -8 -9 -9 -9 -8 -8 -8 -8 -8 -7 -7 -8 -8 -8 -9 -9 -10 -9 -9 -9 -9 -9 -9 -9 -9 -9 -9 -9 -9 -9 -9 -9 -9 -9 -9 -9 -9 -9 -9
-6 -7 -7 -7 -8 -9 -9 -9 -8 -8 -8 -8 -8 -8 -8 -8 -8 -8 -9 -9 -9 -9 -9 -9 -9 -9 -9 -9 -9 -9 -9 -9 -9 -9 -9 -9 -9 -9 -9 -9 -9 -9 -10
-7 -7 -7 -7 -8 -8 -8 -8 -8 -8 -8 -8 -8 -8 -8 -8 -8 -8 -8 -9 -9 -9 -9 -9 -9 -9 -8 -9 -9 -9 -9 -9 -9 -9 -10 -10 -10 -10 -10 -10 -10 -10 -10
-7 -7 -7 -7 -7 -8 -8 -8 -8 -8 -8 -8 -8 -8 -8 -8 -8 -9 -9 -9 -9 -9 -9 -9 -8 -8 -8 -9 -9 -9 -9 -9 -9 -9 -10 -10 -10 -10 -10 -10 -10 -10 -10
-7 -7 -7 -7 -7 -7 -8 -8 -8 -8 -8 -7 -8 -8 -8 -8 -8 -8 -9 -9 -9 -9 -9 -9 -9 -9 -9 -9 -9 -9 -9 -9 -9 -9 -10 -10 -9 -9 -10 -10 -10 -10 -9
-7 -7 -7 -7 -7 -7 -7 -7 -7 -7 -7 -7 -7 -8 -8 -8 -8 -8 -8 -8 -9 -9 -8 -8 -8 -8 -9 -9 -9 -9 -10 -10 -10 -10 -10 -10 -9 -9 -10 -10 -10 -10 -10
-7 -7 -7 -7 -7 -7 -7 -7 -7 -7 -7 -7 -7 -7 -8 -8 -8 -8 -8 -8 -8 -8 -8 -8 -8 -8 -8 -9 -9 -9 -9 -9 -9 -9 -10 -10 -9 -10 -10 -10 -10 -10 -10
-7 -7 -7 -7 -7 -7 -7 -7 -7 -7 -7 -7 -7 -7 -7 -8 -8 -8 -8 -8 -8 -8 -8 -8 -8 -8 -8 -9 -9 -9 -9 -9 -9 -9 -9 -10 -9 -9 -9 -9 -9 -9 -9
-7 -7 -7 -7 -7 -7 -7 -7 -7 -7 -7 -7 -7 -7 -7 -8 -8 -8 -8 -8 -8 -8 -8 -8 -8 -8 -8 -8 -9 -9 -9 -9 -9 -9 -9 -9 -10 -9 -9 -9 -9 -9 -9
-7 -7 -7 -7 -7 -7 -7 -7 -7 -7 -7 -7 -7 -7 -7 -7 -8 -8 -8 -8 -8 -8 -8 -9 -9 -9 -9 -9 -9 -9 -9 -9 -9 -9 -9 -9 -9 -9 -9 -9 -9 -9 -9
-8 -7 -7 -7 -7 -7 -7 -7 -7 -7 -7 -7 -7 -7 -8 -8 -8 -8 -8 -8 -8 -8 -8 -8 -8 -8 -8 -8 -9 -9 -9 -9 -9 -9 -9 -9 -9 -9 -9 -9 -9 -9 -9
-8 -8 -7 -7 -7 -7 -7 -7 -7 -7 -7 -8 -8 -8 -8 -8 -8 -8 -8 -8 -8 -8 -8 -8 -8 -8 -8 -8 -8 -8 -8 -8 -9 -9 -9 -9 -9 -9 -9 -9 -10 -10 -10
-8 -8 -8 -7 -7 -7 -7 -7 -7 -7 -7 -7 -8 -8 -8 -8 -8 -8 -8 -8 -8 -8 -8 -8 -8 -8 -8 -8 -8 -8 -8 -8 -9 -9 -9 -9 -9 -9 -9 -9 -9 -10 -10
-8 -8 -8 -8 -8 -7 -7 -7 -7 -7 -7 -7 -7 -7 -8 -8 -8 -8 -8 -8 -8 -8 -8 -8 -8 -8 -8 -8 -8 -8 -8 -8 -8 -8 -9 -9 -9 -9 -9 -9 -9 -9 -9
-8 -8 -8 -8 -8 -8 -8 -8 -7 -7 -7 -7 -7 -7 -7 -8 -8 -8 -8 -8 -8 -8 -8 -8 -8 -8 -8 -8 -8 -8 -8 -8 -8 -8 -8 -8 -8 -8 -8 -9 -9 -9 -9
-8 -8 -8 -8 -8 -8 -8 -8 -8 -7 -7 -7 -7 -7 -7 -7 -7 -8 -8 -8 -7 -7 -7 -8 -8 -8 -8 -8 -8 -8 -8 -8 -8 -8 -8 -8 -8 -8 -8 -9 -9 -9 -9
-7 -8 -8 -8 -8 -8 -8 -7 -8 -8 -7 -7 -7 -7 -7 -7 -7 -7 -7 -8 -8 -7 -7 -8 -8 -8 -8 -8 -8 -8 -9 -9 -8 -8 -8 -8 -8 -8 -8 -8 -9 -9 -9
-7 -8 -8 -8 -8 -8 -8 -8 -8 -7 -7 -7 -7 -7 -7 -7 -7 -7 -7 -7 -7 -8 -8 -8 -8 -8 -8 -8 -8 -8 -8 -9 -9 -9 -9 -9 -8 -8 -8 -8 -9 -9 -9
-7 -7 -7 -8 -8 -8 -8 -8 -8 -8 -7 -7 -7 -7 -8 -7 -7 -7 -7 -7 -7 -8 -8 -8 -8 -8 -8 -8 -8 -8 -9 -9 -8 -9 -9 -9 -9 -9 -9 -9 -9 -9 -9
-8 -7 -7 -7 -8 -8 -8 -8 -8 -8 -7 -7 -7 -8 -8 -8 -8 -7 -7 -8 -8 -8 -8 -8 -8 -8 -8 -8 -8 -8 -9 -9 -9 -9 -9 -9 -9 -9 -9 -9 -9 -9 -9
-8 -8 -8 -8 -7 -8 -8 -8 -8 -8 -8 -8 -8 -7 -7 -7 -8 -8 -8 -7 -8 -8 -8 -8 -9 -9 -8 -9 -9 -9 -9 -9 -9 -9 -9 -9 -9 -9 -9 -9 -9 -9 -9
-9 -8 -8 -8 -8 -8 -8 -8 -8 -8 -8 -8 -8 -8 -8 -7 -8 -8 -8 -8 -8 -8 -8 -8 -8 -9 -8 -8 -9 -9 -9 -9 -9 -9 -9 -9 -9 -9 -9 -9 -9 -9 -9
-9 -9 -9 -9 -9 -8 -8 -8 -8 -8 -8 -8 -8 -8 -8 -8 -8 -8 -8 -8 -8 -8 -8 -8 -8 -8 -8 -8 -8 -9 -9 -9 -9 -9 -9 -9 -9 -10 -9 -9 -9 -9 -10
Height
5882 5880 5880 5879 5878 5878 5878 5877 5876 5876 5876 5875 5874 5873 5871 5870 5870 5870 5870 5871 5871 5872 5873 5873 5873 5873 5874 5874 5874 5874 5874 5875 5876 5876 5877 5878 5878 5880 5881 5883 5884 5885 5886
5885 5882 5882 5881 5880 5880 5880 5880 5879 5879 5878 5878 5876 5875 5874 5873 5872 5872 5873 5873 5874 5875 5875 5875 5875 5876 5877 5877 5878 5878 5879 5880 5880 5880 5881 5881 5883 5884 5886 5887 5888 5889 5890
5887 5885 5884 5883 5883 5882 5882 5882 5882 5883 5882 5880 5879 5878 5878 5876 5875 5875 5875 5876 5877 5878 5878 5878 5878 5880 5881 5881 5881 5882 5882 5883 5884 5885 5885 5886 5887 5888 5888 5889 5890 5891 5891
5889 5888 5886 5885 5885 5885 5885 5885 5885 5885 5885 5883 5883 5882 5882 5880 5879 5878 5878 5879 5879 5880 5881 5881 5882 5883 5883 5884 5884 5885 5885 5886 5887 5888 5889 5890 5890 5890 5891 5892 5892 5892 5892
5891 5890 5888 5887 5888 5887 5887 5887 5887 5887 5887 5886 5886 5886 5886 5885 5883 5883 5882 5882 5882 5883 5883 5884 5886 5887 5887 5887 5888 5888 5888 5889 5890 5891 5891 5893 5893 5893 5894 5894 5894 5894 5894
5892 5892 5891 5889 5889 5889 5889 5889 5890 5889 5889 5889 5888 5888 5888 5888 5887 5887 5886 5886 5886 5886 5887 5887 5888 5889 5890 5890 5890 5891 5892 5892 5892 5893 5894 5895 5895 5895 5896 5896 5896 5895 5895
5894 5893 5893 5892 5891 5891 5891 5891 5891 5891 5891 5891 5890 5890 5890 5891 5891 5890 5890 5890 5890 5890 5890 5891 5891 5891 5891 5892 5893 5893 5893 5894 5894 5895 5894 5897 5896 5896 5896 5896 5896 5895 5894
5897 5896 5895 5895 5894 5893 5892 5892 5892 5893 5893 5893 5893 5893 5893 5893 5893 5893 5893 5893 5893 5893 5893 5894 5893 5894 5894 5894 5894 5895 5895 5896 5896 5896 5896 5899 5898 5897 5896 5896 5895 5894 5893
5899 5898 5897 5897 5896 5895 5894 5893 5893 5894 5895 5896 5895 5895 5895 5895 5895 5895 5896 5896 5896 5896 5896 5896 5897 5897 5897 5898 5898 5898 5898 5897 5897 5897 5898 5899 5898 5897 5896 5896 5895 5895 5893
5900 5899 5899 5898 5897 5896 5896 5895 5895 5895 5895 5896 5897 5898 5898 5898 5898 5898 5898 5898 5898 5898 5898 5899 5899 5899 5899 5899 5899 5900 5900 5900 5899 5899 5899 5898 5899 5897 5896 5895 5895 5895 5894
5901 5900 5900 5899 5898 5898 5897 5897 5896 5896 5896 5896 5897 5898 5899 5900 5900 5900 5900 5900 5900 5900 5900 5900 5901 5901 5900 5900 5900 5900 5900 5900 5899 5899 5898 5898 5898 5897 5896 5895 5895 5894 5894
5902 5901 5901 5900 5899 5899 5898 5898 5898 5897 5897 5897 5897 5898 5899 5900 5900 5901 5901 5901 5901 5901 5901 5901 5901 5901 5901 5901 5901 5901 5900 5900 5900 5900 5899 5898 5898 5897 5895 5895 5894 5893 5892
5901 5902 5901 5901 5900 5899 5899 5898 5898 5898 5898 5898 5897 5898 5898 5899 5900 5900 5901 5901 5901 5900 5901 5901 5901 5901 5901 5901 5901 5901 5901 5900 5900 5899 5899 5898 5897 5896 5895 5894 5893 5891 5890
5899 5900 5901 5901 5901 5900 5899 5899 5898 5898 5898 5898 5898 5898 5898 5898 5899 5900 5900 5900 5900 5900 5900 5900 5900 5900 5900 5900 5900 5900 5900 5899 5898 5897 5897 5897 5895 5894 5893 5892 5890 5889 5888
5898 5898 5899 5900 5900 5900 5899 5899 5898 5898 5897 5898 5898 5898 5898 5898 5898 5899 5899 5899 5900 5899 5899 5899 5899 5899 5898 5898 5898 5898 5897 5897 5897 5896 5895 5894 5892 5891 5890 5889 5888 5886 5885
5895 5896 5897 5898 5898 5898 5898 5898 5898 5898 5897 5897 5897 5897 5898 5898 5898 5898 5899 5899 5899 5899 5898 5898 5898 5898 5897 5896 5896 5895 5895 5894 5894 5894 5893 5892 5890 5889 5888 5886 5885 5883 5882
5892 5893 5895 5895 5895 5896 5897 5896 5896 5897 5897 5897 5897 5897 5897 5896 5896 5896 5897 5897 5898 5898 5897 5897 5896 5896 5896 5895 5895 5895 5894 5893 5893 5893 5892 5891 5890 5888 5886 5884 5882 5880 5878
5888 5890 5890 5891 5892 5893 5893 5894 5894 5895 5895 5895 5896 5896 5895 5895 5895 5894 5894 5895 5895 5895 5896 5895 5895 5895 5894 5894 5894 5894 5894 5893 5892 5891 5890 5889 5887 5886 5885 5883 5880 5878 5875
5883 5883 5885 5887 5888 5890 5890 5891 5891 5892 5893 5893 5894 5895 5895 5895 5894 5894 5893 5893 5894 5894 5894 5894 5894 5893 5893 5893 5892 5892 5891 5891 5890 5889 5887 5886 5885 5883 5882 5880 5878 5876 5874
5875 5877 5877 5880 5883 5885 5886 5887 5888 5888 5889 5890 5890 5891 5892 5893 5893 5892 5893 5893 5892 5893 5893 5893 5894 5893 5892 5892 5891 5891 5890 5888 5887 5886 5885 5884 5882 5880 5879 5877 5875 5873 5870
5864 5868 5870 5872 5876 5877 5881 5883 5883 5884 5885 5886 5886 5887 5888 5890 5890 5890 5890 5890 5891 5891 5891 5891 5891 5891 5890 5890 5889 5889 5888 5886 5884 5883 5882 5879 5877 5876 5875 5873 5871 5869 5866
5850 5858 5861 5864 5867 5869 5873 5877 5876 5877 5880 5881 5882 5883 5882 5883 5885 5886 5886 5886 5887 5888 5888 5888 5888 5887 5886 5886 5886 5885 5885 5884 5882 5879 5878 5876 5874 5872 5870 5868 5867 5866 5863
5833 5842 5848 5854 5858 5859 5862 5866 5869 5870 5873 5876 5877 5876 5876 5877 5879 5880 5880 5881 5881 5882 5883 5883 5883 5883 5882 5882 5881 5881 5880 5880 5877 5875 5874 5872 5870 5868 5866 5864 5862 5860 5857
5817 5825 5832 5839 5845 5850 5851 5853 5858 5863 5866 5870 5870 5869 5870 5872 5872 5873 5873 5874 5874 5876 5876 5876 5876 5877 5875 5876 5874 5874 5874 5873 5873 5873 5869 5868 5865 5863 5861 5858 5857 5855 5852
5805 5810 5817 5824 5830 5836 5840 5843 5845 5849 5855 5860 5861 5863 5864 5865 5866 5865 5865 5866 5867 5867 5868 5869 5869 5868 5867 5867 5868 5867 5866 5866 5865 5864 5865 5863 5860 5857 5855 5852 5848 5846 5844
5790 5795 5801 5807 5814 5819 5827 5832 5835 5837 5842 5847 5852 5854 5855 5855 5856 5858 5858 5858 5858 5859 5860 5860 5860 5860 5860 5860 5860 5860 5858 5857 5858 5854 5854 5856 5852 5850 5848 5845 5842 5838 5835
Wind_Speed
12 12 12 14 15 15 14 12 11 9 11 10 13 13 12 12 14 18 17 17 16 15 14 13 14 15 15 15 17 19 19 19 20 20 21 25 25 26 25 23 21 20 18
13 13 11 13 14 14 12 11 12 10 11 11 13 14 14 15 15 16 15 15 15 15 15 16 17 17 19 19 19 19 19 20 22 24 26 26 25 24 22 20 19 17 15
14 13 12 11 13 14 12 11 12 12 11 11 12 15 16 17 18 17 17 16 16 17 17 18 18 21 22 22 22 21 22 23 23 23 22 22 21 20 19 17 16 14 12
12 14 12 13 11 13 12 11 11 11 11 11 12 14 17 17 18 19 18 18 17 18 19 19 19 22 22 22 23 23 23 21 21 21 19 18 17 16 15 13 11 9 9
10 13 12 14 11 11 13 10 10 12 11 11 13 14 15 16 17 18 19 20 21 20 20 20 20 20 20 22 22 22 21 20 18 17 16 13 13 12 10 9 8 6 6
10 10 12 12 13 11 11 11 8 11 11 11 12 12 13 14 15 17 18 18 18 19 19 20 20 19 18 18 18 18 18 16 15 14 13 10 9 8 7 6 6 5 4
13 10 10 10 12 12 10 11 8 9 10 10 11 12 12 12 14 15 16 17 17 17 18 17 17 17 16 15 15 15 14 13 14 14 14 8 8 8 7 7 7 7 7
13 12 9 8 10 10 9 9 10 8 8 8 10 11 12 12 12 12 14 14 14 14 14 14 15 15 16 15 15 14 14 13 12 13 12 7 8 8 9 9 9 10 10
11 11 11 8 6 8 7 7 9 9 7 7 7 10 11 11 12 11 12 13 13 13 13 14 14 14 14 14 13 12 11 12 10 11 9 7 6 7 8 8 8 8 9
8 10 11 10 7 4 5 5 6 7 8 6 7 7 8 10 11 11 11 12 13 13 13 13 13 13 12 13 12 12 11 9 8 7 7 6 5 4 4 6 7 7 7
5 7 9 10 10 6 3 4 4 4 4 6 6 7 7 8 9 10 10 9 10 10 10 10 9 9 9 9 10 11 10 9 8 6 5 4 3 5 6 7 9 9 8
3 4 6 7 10 10 6 2 2 2 4 4 5 6 7 8 7 8 8 8 7 6 7 7 7 6 6 6 7 6 6 6 6 6 5 6 5 6 7 9 10 12 13
5 4 3 5 6 8 9 5 2 2 2 4 5 6 6 6 6 6 5 5 5 4 3 3 3 2 2 2 2 3 3 3 3 4 5 5 7 7 8 9 10 13 14
8 7 7 4 3 4 6 7 5 1 2 3 4 5 5 6 6 5 5 4 3 3 3 2 2 1 1 1 1 2 2 3 5 7 7 8 9 10 11 12 14 16 17
11 10 11 9 6 4 3 5 6 4 1 1 3 4 5 5 5 5 6 5 5 5 4 4 3 3 3 2 2 3 4 4 5 8 10 12 13 14 15 16 17 18 19
12 13 13 12 10 8 5 3 4 5 3 1 2 3 4 5 5 5 5 5 5 5 4 4 3 2 2 1 1 2 3 5 5 6 7 10 12 14 15 16 16 18 19
19 17 16 15 12 11 8 7 5 3 4 4 1 2 4 4 5 5 5 4 4 4 3 3 2 2 2 2 2 2 3 3 4 4 6 8 9 10 11 14 15 16 16
26 23 22 20 17 13 11 10 9 8 5 5 4 1 1 3 4 4 4 4 4 3 2 1 2 2 3 2 1 1 1 2 4 7 7 8 10 11 11 12 14 16 17
31 30 27 25 23 20 16 14 12 11 10 9 8 6 2 2 2 2 3 4 6 4 3 2 1 1 1 1 2 2 5 6 8 10 12 14 15 16 15 14 13 14 17
37 36 35 32 30 28 24 20 17 15 14 14 14 13 11 8 6 5 5 5 4 4 5 5 5 5 5 5 7 7 10 11 13 13 15 15 15 17 18 19 18 17 18
44 41 40 37 34 33 30 27 24 23 20 18 17 18 18 16 14 13 12 11 10 10 10 10 10 10 11 10 9 11 12 13 16 16 17 18 20 20 20 20 21 22 22
54 47 44 44 39 37 34 32 33 30 26 24 21 21 21 22 21 20 20 19 17 15 15 15 15 15 17 15 13 14 14 15 17 19 19 21 22 23 24 25 23 23 24
60 55 52 48 44 42 39 38 37 37 33 28 26 27 28 27 25 24 25 24 24 22 21 22 21 21 22 23 22 19 18 18 19 21 22 23 24 25 26 27 27 26 28
64 62 57 54 51 46 46 45 42 40 38 33 33 34 32 31 30 29 29 29 28 28 29 28 29 28 30 28 30 27 27 25 24 21 24 26 27 27 27 28 29 29 29
67 68 63 60 58 54 50 48 46 45 42 39 37 37 36 34 33 33 33 32 32 34 32 32 33 34 36 36 34 34 33 32 32 30 26 27 30 30 29 29 30 32 33
65 63 62 58 60 61 58 51 50 49 46 42 39 38 38 39 39 38 37 36 36 36 37 37 38 38 39 39 38 37 37 37 34 37 34 29 32 33 32 30 32 34 35
Wind_Direction
43 55 59 61 59 61 55 56 57 54 74 83 94 95 100 108 114 121 123 125 122 120 116 116 111 108 110 117 121 117 118 120 124 124 119 112 109 108 107 107 107 104 101
39 55 59 61 58 62 58 62 60 60 76 80 94 95 96 99 105 114 123 125 123 120 116 111 105 106 111 108 105 108 111 112 111 111 110 109 108 109 108 105 98 94 93
34 50 61 60 59 62 61 80 67 67 75 79 90 92 89 93 100 108 116 122 123 120 114 109 109 115 108 102 102 104 104 103 102 100 100 101 100 98 97 93 91 92 86
30 41 59 59 61 60 60 79 77 70 81 80 82 85 90 92 98 105 110 113 115 116 114 112 118 120 111 106 104 103 102 99 97 97 94 94 94 91 89 88 87 80 73
29 39 45 64 58 64 61 61 74 73 79 83 87 82 89 92 96 101 105 108 113 112 109 111 119 118 110 105 104 102 102 100 96 95 92 90 93 91 88 82 75 64 55
41 36 44 59 67 60 69 68 66 78 75 86 86 91 91 93 91 94 97 100 105 108 109 111 111 110 107 105 105 104 100 99 102 98 91 87 85 83 72 60 51 37 32
45 39 45 48 66 73 70 74 79 82 79 81 93 97 98 98 97 96 96 96 96 100 104 107 109 113 111 106 104 102 100 98 98 88 81 72 79 71 63 56 43 27 14
38 41 42 50 57 71 78 81 78 86 86 85 93 95 99 102 102 101 101 100 99 98 99 101 105 107 109 108 109 109 109 103 100 93 82 75 58 43 46 43 34 26 10
31 37 37 45 55 61 69 74 86 93 95 94 92 99 104 102 104 108 105 100 96 95 98 99 98 95 92 91 92 91 89 91 88 85 75 47 37 48 38 41 29 35 33
29 33 36 41 50 60 66 77 78 92 108 107 108 107 102 102 105 116 113 108 103 100 101 103 101 97 97 96 91 85 83 80 78 75 63 41 11 34 18 22 16 21 25
9 31 32 41 46 57 57 71 97 102 109 122 127 124 125 118 114 110 108 110 111 107 110 111 109 108 109 105 104 96 84 77 75 70 73 63 24 20 16 8 4 358 352
329 11 39 40 44 47 51 69 98 131 139 143 146 144 141 140 137 128 124 124 120 120 122 120 117 116 107 94 88 79 83 84 65 48 41 34 5 0 355 352 347 342 343
267 289 342 23 38 39 42 48 84 173 174 174 171 174 172 167 164 160 157 147 146 147 142 138 132 127 109 85 60 58 42 11 18 357 351 349 331 339 333 331 325 326 325
251 267 273 287 332 19 32 36 47 91 194 188 183 184 189 190 188 191 195 192 190 195 208 225 240 253 279 315 344 323 323 320 325 320 312 304 304 309 309 309 308 308 307
254 252 263 259 264 294 343 15 33 45 77 213 210 186 172 176 184 191 201 206 211 211 217 233 254 274 291 301 303 312 313 313 312 307 308 311 311 312 312 310 310 307 309
266 255 251 248 250 254 263 300 344 20 28 117 213 222 206 185 178 189 189 193 203 213 215 208 219 217 220 269 351 6 7 5 4 344 331 330 330 328 328 326 323 317 314
262 265 253 243 239 246 248 243 255 293 341 0 296 235 242 230 220 202 196 201 202 203 209 206 196 185 170 139 96 49 31 14 16 3 339 340 341 334 332 329 328 327 323
259 263 252 248 244 245 243 245 234 241 261 294 319 344 242 239 229 234 215 191 206 193 190 142 121 115 109 110 121 147 224 275 307 323 337 332 337 341 335 329 332 329 329
259 258 256 248 249 249 249 244 243 234 238 247 268 285 275 240 219 224 212 177 159 177 172 190 238 243 213 253 284 305 299 315 316 328 329 335 335 335 340 335 333 325 324
254 255 255 252 250 250 252 252 249 247 239 239 243 255 267 263 246 226 225 201 223 230 230 238 240 267 293 302 306 314 313 314 314 317 318 321 323 325 328 330 332 328 324
246 247 253 254 253 251 252 254 255 249 247 245 247 247 250 255 252 254 247 241 232 237 253 264 271 272 277 280 281 293 299 302 306 310 311 311 313 316 316 319 322 322 321
252 247 243 250 249 254 252 250 251 252 247 246 249 254 257 252 250 252 257 260 255 253 254 253 261 273 277 281 280 282 288 295 300 301 305 306 304 307 309 310 312 312 312
250 248 246 244 246 249 252 251 249 250 251 247 248 249 250 252 253 253 255 256 259 261 259 263 263 263 269 279 277 278 279 284 291 294 296 297 299 301 301 303 306 309 311
252 249 247 247 246 242 245 250 252 252 247 242 241 245 249 247 250 250 251 256 258 258 259 259 262 265 269 268 275 278 278 279 279 282 290 293 294 294 298 300 301 301 302
254 253 247 246 245 245 242 244 248 251 252 246 243 245 246 247 245 248 252 254 258 261 261 262 262 263 266 269 270 273 276 278 279 279 277 286 288 291 292 297 300 301 302
249 253 253 250 248 248 243 237 243 248 250 250 248 246 246 245 244 244 249 253 257 259 261 261 261 263 266 268 271 272 274 274 277 277 278 279 280 287 289 294 296 299 302